South Bend, IN

6:37 AM EDT on August 27, 2016 (GMT -0400)
South Bend Regional

Weather History for KSBN - September, 2013

Change the Weather History Date:

Sunday, September 29, 2013

  Actual Average Record
Temperature  
Mean Temperature 61 °F 58 °F  
Max Temperature 71 °F 69 °F 94 °F (1953)
Min Temperature 50 °F 48 °F 30 °F (1942)
Degree Days  
Heating Degree Days 4 8  
Month to date heating degree days 84 107  
Since 1 July heating degree days 113 125  
Cooling Degree Days 0 1  
Month to date cooling degree days 118 79  
Year to date cooling degree days 798 761  
Growing Degree Days 10 (Base 50)    
Moisture  
Dew Point 54 °F    
Average Humidity 75    
Maximum Humidity 94    
Minimum Humidity 48    
Precipitation  
Precipitation 0.23 in 0.10 in 1.42 in (1929)
Month to date precipitation 4.12 3.42  
Year to date precipitation 31.04 28.69  
Snow  
Snow 0.00 in 0.00 in 0.10 in (1993)
Month to date snowfall 0.0 0.0  
Since 1 July snowfall 0.0 0.0  
Since 1 September snowfall 0.0 0.0  
Snow Depth 0.00 in    
Sea Level Pressure  
Sea Level Pressure 30.00 in    
Wind  
Wind Speed 8 mph (NW)    
Max Wind Speed 18 mph    
Max Gust Speed 25 mph    
Visibility 9 miles    
Events Rain    
T = Trace of Precipitation, MM = Missing Value Source: NWS Daily Summary

Daily Weather History Graph

Daily Weather History Graph

Search for Another Location

Airport or City:

Trip Planner

Search our weather history database for the weather conditions in past years. The results will help you decide how hot, cold, wet, or windy it might be!

Date:

Astronomy

Sep. 29, 2013 Rise Set
Actual Time 7:40 AM EDT 7:29 PM EDT
Civil Twilight 7:12 AM EDT 7:57 PM EDT
Nautical Twilight 6:40 AM EDT 8:29 PM EDT
Astronomical Twilight 6:07 AM EDT 9:02 PM EDT
Moon 2:17 AM EDT (9/29) 4:29 PM EDT (9/29)
Length of Visible Light 12h 45m
Length of Day
11h 49m
Waning Crescent, 27% of the Moon is Illuminated
Sep 29
Waning Crescent
Oct 4
New
Oct 11
First Quarter
Oct 18
Full
Oct 26
Last Quarter

Hourly Weather History & Observations

Time (EDT) Temp. Dew Point Humidity Pressure Visibility Wind Dir Wind Speed Gust Speed Precip Events Conditions
12:54 AM 71.1 °F 55.0 °F 57% 29.96 in 10.0 mi SSW 12.7 mph - N/A   Overcast
1:54 AM 71.1 °F 55.0 °F 57% 29.96 in 10.0 mi SSW 12.7 mph - N/A   Mostly Cloudy
2:54 AM 70.0 °F 55.0 °F 59% 29.95 in 10.0 mi South 11.5 mph 18.4 mph N/A   Overcast
3:54 AM 70.0 °F 55.0 °F 59% 29.94 in 10.0 mi SSW 10.4 mph - 0.00 in   Overcast
4:54 AM 64.9 °F 59.0 °F 81% 29.96 in 6.0 mi West 18.4 mph 25.3 mph 0.01 in Rain Rain
5:44 AM 62.6 °F 60.8 °F 94% 29.97 in 3.0 mi WSW 5.8 mph - 0.11 in Rain Rain
5:54 AM 63.0 °F 61.0 °F 93% 29.96 in 6.0 mi SW 6.9 mph - 0.12 in Rain Light Rain
6:01 AM 62.6 °F 60.8 °F 94% 29.98 in 4.0 mi West 6.9 mph - 0.01 in Rain Rain
6:20 AM 62.6 °F 60.8 °F 94% 29.98 in 7.0 mi NNW 11.5 mph - 0.04 in Rain Light Rain
6:54 AM 60.1 °F 57.9 °F 93% 29.99 in 10.0 mi NNW 13.8 mph - 0.09 in Rain Light Rain
7:54 AM 59.0 °F 55.9 °F 90% 30.00 in 10.0 mi NNW 9.2 mph - 0.01 in Rain Light Rain
8:54 AM 59.0 °F 55.9 °F 90% 30.01 in 10.0 mi NNW 10.4 mph - 0.00 in   Overcast
9:11 AM 59.0 °F 55.4 °F 88% 30.02 in 10.0 mi North 9.2 mph - N/A   Overcast
9:54 AM 60.1 °F 55.9 °F 86% 30.02 in 10.0 mi North 9.2 mph - N/A   Overcast
10:01 AM 60.8 °F 55.4 °F 82% 30.03 in 10.0 mi North 10.4 mph - N/A   Overcast
10:54 AM 62.1 °F 54.0 °F 75% 30.02 in 10.0 mi NNE 9.2 mph - N/A   Overcast
11:01 AM 60.8 °F 55.4 °F 82% 30.04 in 10.0 mi North 9.2 mph - N/A   Overcast
11:54 AM 63.0 °F 53.1 °F 70% 30.03 in 10.0 mi NNE 6.9 mph - N/A   Overcast
12:20 PM 64.4 °F 51.8 °F 64% 30.04 in 10.0 mi North 4.6 mph - N/A   Overcast
12:44 PM 64.4 °F 51.8 °F 64% 30.04 in 10.0 mi North 10.4 mph - N/A   Overcast
12:54 PM 64.0 °F 53.1 °F 67% 30.03 in 10.0 mi North 6.9 mph - N/A   Mostly Cloudy
1:54 PM 64.9 °F 50.0 °F 58% 30.02 in 10.0 mi NNW 10.4 mph - N/A   Mostly Cloudy
2:54 PM 64.0 °F 51.1 °F 63% 30.01 in 10.0 mi North 11.5 mph - N/A   Mostly Cloudy
3:54 PM 66.0 °F 50.0 °F 56% 30.00 in 10.0 mi North 9.2 mph - N/A   Mostly Cloudy
4:54 PM 66.9 °F 50.0 °F 54% 30.00 in 10.0 mi NW 8.1 mph 16.1 mph N/A   Mostly Cloudy
5:54 PM 66.0 °F 50.0 °F 56% 30.00 in 10.0 mi NW 9.2 mph - N/A   Partly Cloudy
6:54 PM 63.0 °F 48.9 °F 60% 30.01 in 10.0 mi NW 6.9 mph - N/A   Clear
7:54 PM 55.9 °F 48.9 °F 77% 30.02 in 10.0 mi WNW 4.6 mph - N/A   Clear
8:54 PM 55.0 °F 50.0 °F 83% 30.02 in 10.0 mi Calm Calm - N/A   Clear
9:54 PM 52.0 °F 48.0 °F 86% 30.02 in 10.0 mi Calm Calm - N/A   Clear
10:54 PM 51.1 °F 48.0 °F 89% 30.02 in 10.0 mi Calm Calm - N/A   Clear
11:54 PM 51.1 °F 48.0 °F 89% 30.02 in 10.0 mi Calm Calm - N/A   Clear